Home   Weather   Hildesheim   Past weeks

Flag for Germany Past Weather in Hildesheim, Lower Saxony, Germany — Yesterday and Last 2 Weeks

Now
64 °F

Partly sunny.


Feels Like: 64 °F
Forecast: 52 / 67 °F
Wind: 7 mph from West

Location: Braunschweig Wolfsburg

Current Time: Oct 17, 2017 at 1:27:41 pm

Latest Report: Oct 17, 2017 at 12:20 pm


Visibility: N/A

Pressure: 30.18 "Hg

Humidity: 88%

Dew Point: 61 °F

Location of HildesheimLocation

Past Weather in Hildesheim — Graph

°F

Hildesheim Temperature Yesterday

Maximum temperature yesterday: 72 °F (at 1:20 pm)
Minimum temperature yesterday: 55 °F (at 6:50 am)
Average temperature yesterday: 66 °F

High & Low Weather Summary for the Past Weeks

 TemperatureHumidityPressure
High73 °F (Oct 15, 2:50 pm)100% (Oct 13, 6:50 am)30.30 "Hg (Oct 13, 6:50 am)
Low46 °F (Oct 8, 8:50 pm)53% (Oct 15, 4:50 pm)29.36 "Hg (Oct 5, 1:50 pm)
Average57 °F79%30.00 "Hg
* Reported Oct 2 12:20 pm — Oct 17 12:20 pm, Hildesheim. Weather by CustomWeather, © 2017

Note: Actual official high and low records may vary slightly from our data, if they occured in-between our weather recording intervals... More about our weather records

Advertising

Hildesheim Weather History for the Previous 24 Hours

Scroll right to see more
 ConditionsComfort  
Time TempWeatherWind HumidityBarometerVisibility
12:20 pm
Tue, Oct 17
64 °FPartly sunny.7 mph88%30.18 "HgN/A
11:20 am63 °FPassing clouds.8 mph88%30.18 "HgN/A
10:50 am63 °FSunny.8 mph88%30.18 "Hg10 mi
10:20 am63 °FSunny.9 mph88%30.18 "Hg10 mi
9:20 am61 °FSunny.8 mph88%30.18 "Hg10 mi
8:50 am61 °FSunny.8 mph88%30.15 "Hg10 mi
7:50 am61 °FSunny.9 mph88%30.15 "Hg10 mi
7:20 am61 °FClear.9 mph83%30.15 "Hg10 mi
6:50 am61 °FClear.8 mph88%30.12 "Hg10 mi
9:50 pm
Mon, Oct 16
63 °FClear.3 mph83%30.15 "Hg10 mi
9:20 pm63 °FPassing clouds.5 mph83%30.18 "HgN/A
8:20 pm64 °FClear.3 mph78%30.18 "Hg10 mi
7:50 pm66 °FClear.3 mph73%30.15 "Hg10 mi
7:20 pm66 °FClear.5 mph73%30.18 "Hg10 mi
6:50 pm68 °FClear.5 mph69%30.18 "Hg10 mi
6:20 pm68 °FPassing clouds.6 mph73%30.15 "HgN/A
5:50 pm70 °FSunny.7 mph69%30.15 "Hg10 mi
5:20 pm72 °FPassing clouds.7 mph65%30.18 "HgN/A
4:50 pm72 °FPassing clouds.7 mph65%30.18 "HgN/A
4:20 pm72 °FSunny.8 mph65%30.18 "Hg10 mi
3:50 pm72 °FPassing clouds.7 mph65%30.18 "HgN/A
3:20 pm72 °FSunny.9 mph65%30.18 "Hg10 mi
2:50 pm72 °FSunny.10 mph65%30.18 "Hg10 mi
2:20 pm70 °FSunny.10 mph69%30.18 "Hg10 mi
1:50 pm70 °FSunny.14 mph64%30.21 "Hg10 mi
1:20 pm72 °FPassing clouds.10 mph69%30.18 "HgN/A
Weather by CustomWeather, © 2017

See weather overview